Preview of NWS' New Version of Forecast
This preview is not operational and should not be used for support decisions.

Regional Weather Roundup (RWR)

Issued by National Weather Service (NWS)

                            
000
ASUS43 KLSX 251507
RWRMO 

WEATHER SUMMARY FOR MISSOURI
NATIONAL WEATHER SERVICE SPRINGFIELD MO
1000 AM CDT SUN AUG 25 2019

NOTE: "FAIR" INDICATES FEW OR NO CLOUDS BELOW 12,000 FEET WITH NO
       SIGNIFICANT WEATHER AND/OR OBSTRUCTIONS TO VISIBILITY.
       CURRENT SKY AND/OR WEATHER CONDITIONS ARE NOT AVAILABLE FOR
       CHILLICOTHE AND FARMINGTON.

MOZ001>031-035>038-043-044-053-054-251600-
...NORTHERN AND WESTERN MISSOURI...
  
CITY           SKY/WX    TMP DP  RH WIND       PRES   REMARKS
KANSAS CTY INT LGT RAIN  66  65  96 E10       29.92S FOG              
KANSAS C DTWN  LGT RAIN  69  65  86 E8        29.91S FOG              
LEE'S SUMMIT   CLOUDY    69  65  86 E6        29.92F                  
ST JOSEPH      RAIN      66  63  90 E12       29.91F FOG              
CHILLICOTHE      N/A     67  63  87 E3        29.98S                  
KIRKSVILLE     CLOUDY    66  61  84 E10       30.00S                  
     
$$
MOZ066>068-077>081-088>096-101>105-251600-
...SOUTHWEST MISSOURI...
  
CITY           SKY/WX    TMP DP  RH WIND       PRES   REMARKS
SPRINGFIELD    CLOUDY    71  67  87 S8        29.95R                  
JOPLIN         HVY RAIN  68  66  93 NW3       29.93F FOG              
BRANSON        CLOUDY    68  68 100 SE8       29.98F FOG              
               
$$
MOZ032>034-039>042-045>050-055>058-069>072-251600-
...CENTRAL MISSOURI...  
  
CITY           SKY/WX    TMP DP  RH WIND       PRES   REMARKS
COLUMBIA       CLOUDY    68  63  84 SE7       29.98F                  
JEFFERSON CITY CLOUDY    68  63  84 E7        29.97F                  
ROLLA          CLOUDY    70  65  84 SE8       30.00R                  
SEDALIA        CLOUDY    67  65  93 SE9       29.95S                  
WHITEMAN AFB   CLOUDY    70  68  93 SE6       29.91S                  
WARRENSBURG    CLOUDY    68  64  88 E7        29.93F                  
OSAGE BEACH    CLOUDY    70  66  87 SE7       29.98S                  
               
$$
MOZ051-052-059>065-251600-
...EAST CENTRAL MISSOURI...
  
CITY           SKY/WX    TMP DP  RH WIND       PRES   REMARKS
ST LOUIS INTL  PTSUNNY   70  59  68 E10       30.01F                  
SPIRIT OF STL  LGT RAIN  67  64  90 E5        30.00S FOG              
ST CHARLES       N/A    N/A N/A N/A MISG      30.01S                  
                   
$$
MOZ072>076-082>087-097>100-106>115-251600-
...SOUTH CENTRAL AND SOUTHEAST MISSOURI...
  
CITY           SKY/WX    TMP DP  RH WIND       PRES   REMARKS
CAPE GIRARDEAU CLOUDY    73  64  73 NE6       29.99R                  
FARMINGTON     RAIN      66  64  94 CALM      30.01S FOG              
POPLAR BLUFF   CLOUDY    75  66  73 E5        29.97S                  
WEST PLAINS    CLOUDY    70  66  87 VRB5      30.01R                  
                                       
$$